Scottsbluff, NE

8:09 PM MST on November 11, 2019 (GMT -0700)
Heilig

Weather History for KBFF - October, 2019

Change the Weather History Date:

Monday, October 21, 2019

  Actual Average Record
Temperature  
Mean Temperature 42 °F -  
Max Temperature 51 °F 64 °F 84 °F (1947)
Min Temperature 33 °F 32 °F 18 °F (1996)
Degree Days  
Heating Degree Days 23    
Moisture  
Dew Point 28 °F    
Average Humidity 64    
Maximum Humidity 86    
Minimum Humidity 38    
Precipitation  
Precipitation 0.00 in - - ()
Sea Level Pressure  
Sea Level Pressure 29.98 in    
Wind  
Wind Speed 14 mph ()    
Max Wind Speed 24 mph    
Max Gust Speed 34 mph    
Visibility 10.0 miles    
Events      
Averages and records for this station are not official NWS values.
T = Trace of Precipitation, MM = Missing Value Source: Averaged Metar Reports

Daily Weather History Graph

Daily Weather History Graph

Search for Another Location

Airport or City:

Astronomy

Oct. 21, 2019 Rise Set
Actual Time 7:13 AM MDT 6:03 PM MDT
Civil Twilight 6:45 AM MDT 6:32 PM MDT
Nautical Twilight 6:12 AM MDT 7:04 PM MDT
Astronomical Twilight 5:40 AM MDT 7:36 PM MDT
Moon No Moon Rise 2:36 PM MDT (10/21)
Length of Visible Light 11h 47m
Length of Day
10h 50m
Waning Gibbous, 47% of the Moon is Illuminated
Oct 21
Waning Gibbous
Oct 27
New
Nov 4
First Quarter
Nov 12
Full
Nov 19
Last Quarter

Hourly Weather History & Observations

Time (MDT) Temp. Windchill Dew Point Humidity Pressure Visibility Wind Dir Wind Speed Gust Speed Precip Events Conditions
12:53 AM 37.0 °F 26.7 °F 32.0 °F 82% 29.84 in 10.0 mi WNW 19.6 mph - N/A   Partly Cloudy
1:53 AM 36.0 °F 26.0 °F 32.0 °F 86% 29.84 in 10.0 mi WNW 17.3 mph - N/A   Clear
2:53 AM 35.1 °F 26.9 °F 30.0 °F 82% 29.86 in 10.0 mi WNW 11.5 mph - N/A   Clear
3:53 AM 35.1 °F 25.5 °F 30.0 °F 82% 29.89 in 10.0 mi WNW 15.0 mph - N/A   Clear
4:53 AM 35.1 °F 26.4 °F 28.9 °F 78% 29.91 in 10.0 mi WNW 12.7 mph - N/A   Clear
5:53 AM 33.1 °F 24.4 °F 28.0 °F 82% 29.93 in 10.0 mi WNW 11.5 mph - N/A   Clear
6:53 AM 33.1 °F 23.4 °F 28.0 °F 82% 29.93 in 10.0 mi WNW 13.8 mph - N/A   Clear
7:53 AM 33.1 °F 24.4 °F 27.0 °F 78% 29.94 in 10.0 mi WNW 11.5 mph - N/A   Clear
8:53 AM 37.0 °F 29.3 °F 28.0 °F 70% 29.96 in 10.0 mi NW 11.5 mph - N/A   Clear
9:53 AM 42.1 °F 33.9 °F 26.1 °F 53% 29.95 in 10.0 mi NW 17.3 mph 28.8 mph N/A   Clear
10:53 AM 45.0 °F 37.4 °F 26.1 °F 48% 29.95 in 10.0 mi NW 18.4 mph 33.4 mph N/A   Clear
11:53 AM 48.0 °F - 28.0 °F 46% 29.96 in 10.0 mi NNW 24.2 mph 33.4 mph N/A   Clear
12:53 PM 48.9 °F - 27.0 °F 43% 29.96 in 10.0 mi NNW 24.2 mph 33.4 mph N/A   Partly Cloudy
1:53 PM 51.1 °F - 26.1 °F 38% 29.94 in 10.0 mi NW 21.9 mph 33.4 mph N/A   Scattered Clouds
2:53 PM 48.0 °F - 24.1 °F 39% 29.96 in 10.0 mi NNW 23.0 mph 34.5 mph N/A   Mostly Cloudy
3:53 PM 48.0 °F - 27.0 °F 44% 29.99 in 10.0 mi NNW 19.6 mph - N/A   Overcast
4:53 PM 46.9 °F - 28.0 °F 48% 30.01 in 10.0 mi NW 13.8 mph - 0.00 in   Overcast
5:53 PM 46.0 °F 39.3 °F 26.1 °F 46% 30.04 in 10.0 mi NW 16.1 mph - N/A   Overcast
6:53 PM 43.0 °F 36.8 °F 27.0 °F 53% 30.06 in 10.0 mi NNW 11.5 mph - N/A   Mostly Cloudy
7:53 PM 37.9 °F 30.9 °F 27.0 °F 65% 30.10 in 10.0 mi NNW 10.4 mph - N/A   Partly Cloudy
8:53 PM 34.0 °F 28.8 °F 27.0 °F 75% 30.11 in 10.0 mi WNW 5.8 mph - N/A   Clear
9:53 PM 35.1 °F 27.9 °F 27.0 °F 72% 30.12 in 10.0 mi West 9.2 mph - N/A   Partly Cloudy
10:53 PM 36.0 °F 28.0 °F 28.0 °F 73% 30.12 in 10.0 mi WNW 11.5 mph - N/A   Mostly Cloudy
11:53 PM 34.0 °F 26.6 °F 28.9 °F 82% 30.14 in 10.0 mi WNW 9.2 mph - N/A   Scattered Clouds